Sofia, Bulgaria

4:15 AM EET on February 07, 2016 (GMT +0200)
Sofia

Weather History for LBSF - May, 2013

Change the Weather History Date:

Tuesday, May 14, 2013

  Actual Average Record
Temperature  
Mean Temperature 58 °F -  
Max Temperature 69 °F 71 °F 82 °F (2007)
Min Temperature 48 °F 51 °F 42 °F (2002)
Degree Days  
Heating Degree Days 6    
Growing Degree Days 8 (Base 50)    
Moisture  
Dew Point 44 °F    
Average Humidity 64    
Maximum Humidity 88    
Minimum Humidity 26    
Precipitation  
Precipitation 0.00 in 0.10 in - ()
Sea Level Pressure  
Sea Level Pressure 29.89 in    
Wind  
Wind Speed 13 mph ()    
Max Wind Speed 18 mph    
Max Gust Speed 25 mph    
Visibility 6.5 miles    
Events      
Averages and records for this station are not official NWS values.
T = Trace of Precipitation, MM = Missing Value Source: Averaged Metar Reports

Daily Weather History Graph

Daily Weather History Graph

Search for Another Location

Airport or City:

Trip Planner

Search our weather history database for the weather conditions in past years. The results will help you decide how hot, cold, wet, or windy it might be!

Date:

Astronomy

May. 14, 2013 Rise Set
Actual Time 6:05 AM EEST 8:40 PM EEST
Civil Twilight 5:33 AM EEST 9:13 PM EEST
Nautical Twilight 4:52 AM EEST 9:53 PM EEST
Astronomical Twilight 4:07 AM EEST 10:39 PM EEST
Moon 9:27 AM EEST (5/14) No Moon Set
Length of Visible Light 15h 40m
Length of Day
14h 35m
Waxing Crescent, 16% of the Moon is Illuminated
May 14
Waxing Crescent
May 18
First Quarter
May 25
Full
May 31
Last Quarter
Jun 8
New

Hourly Weather History & Observations

Time (EEST) Temp. Dew Point Humidity Pressure Visibility Wind Dir Wind Speed Gust Speed Precip Events Conditions
12:00 AM 49 °F 44 °F 77% 29.87 in 6 mi West 8.9 mph - -   Mist
12:00 AM 50.0 °F 44.6 °F 82% 29.89 in 6.2 mi West 17.9 mph - N/A   Overcast
12:30 AM 51.8 °F 46.4 °F 82% 29.89 in 6.2 mi West 17.9 mph - N/A   Overcast
1:00 AM 51.8 °F 46.4 °F 82% 29.89 in 6.2 mi West 13.4 mph 24.6 mph N/A   Overcast
1:30 AM 50.0 °F 44.6 °F 82% 29.86 in 6.2 mi West 17.9 mph - N/A   Overcast
2:00 AM 50.0 °F 44.6 °F 82% 29.86 in 6.2 mi West 15.7 mph - N/A   Overcast
2:30 AM 50.0 °F 44.6 °F 82% 29.86 in 6.2 mi West 17.9 mph - N/A   Overcast
3:00 AM 49 °F 45 °F 79% 29.87 in 6 mi West 6.7 mph - -   Mist
3:00 AM 51.8 °F 48.2 °F 88% 29.86 in 6.2 mi West 15.7 mph - N/A   Overcast
3:30 AM 50.0 °F 46.4 °F 87% 29.86 in 6.2 mi West 13.4 mph - N/A   Overcast
4:00 AM 50.0 °F 46.4 °F 87% 29.86 in 6.2 mi West 15.7 mph - N/A   Overcast
4:30 AM 51.8 °F 48.2 °F 88% 29.86 in 6.2 mi West 15.7 mph - N/A   Overcast
5:00 AM 51.8 °F 48.2 °F 88% 29.86 in 6.2 mi West 13.4 mph - N/A   Overcast
5:30 AM 50.0 °F 46.4 °F 87% 29.86 in 6.2 mi West 13.4 mph - N/A   Overcast
6:00 AM 49 °F 45 °F 79% 29.88 in 6 mi WNW 11.2 mph - -   Mist
6:00 AM 50.0 °F 46.4 °F 87% 29.86 in 6.2 mi West 13.4 mph - N/A   Overcast
6:30 AM 51.8 °F 48.2 °F 88% 29.86 in 6.2 mi WNW 13.4 mph - N/A   Overcast
7:00 AM 51.8 °F 48.2 °F 88% 29.89 in 6.2 mi West 13.4 mph - N/A   Overcast
7:30 AM 51.8 °F 48.2 °F 88% 29.89 in 6.2 mi West 13.4 mph - N/A   Overcast
8:00 AM 51.8 °F 48.2 °F 88% 29.89 in 6.2 mi West 13.4 mph - N/A   Overcast
8:30 AM 51.8 °F 48.2 °F 88% 29.89 in 6.2 mi West 15.7 mph - N/A   Overcast
9:00 AM 50 °F 46 °F 81% 29.90 in 5 mi West 4.5 mph - -   Mist
9:00 AM 53.6 °F 48.2 °F 82% 29.92 in 6.2 mi West 13.4 mph - N/A   Overcast
9:30 AM 53.6 °F 48.2 °F 82% 29.92 in 6.2 mi WNW 15.7 mph - N/A   Overcast
10:00 AM 51.8 °F 46.4 °F 82% 29.92 in 6.2 mi WNW 15.7 mph - N/A   Overcast
10:30 AM 53.6 °F 46.4 °F 77% 29.92 in 6.2 mi West 15.7 mph - N/A   Overcast
11:00 AM 57.2 °F 48.2 °F 72% 29.92 in 6.2 mi WNW 17.9 mph - N/A   Mostly Cloudy
11:30 AM 57.2 °F 46.4 °F 67% 29.92 in 6.2 mi WNW 13.4 mph - N/A   Mostly Cloudy
12:00 PM 56 °F 43 °F 52% 29.90 in 6 mi North 4.5 mph - -   Mostly Cloudy
12:00 PM 60.8 °F 48.2 °F 63% 29.92 in 6.2 mi WNW 13.4 mph - N/A   Scattered Clouds
12:30 PM 60.8 °F 48.2 °F 63% 29.92 in 6.2 mi WNW 13.4 mph - N/A   Scattered Clouds
1:00 PM 62.6 °F 46.4 °F 55% 29.92 in 6.2 mi WNW 13.4 mph - N/A   Partly Cloudy
1:30 PM 64.4 °F 48.2 °F 56% 29.92 in 6.2 mi WNW 13.4 mph - N/A   Mostly Cloudy
2:00 PM 64.4 °F 46.4 °F 52% 29.89 in 6.2 mi West 13.4 mph - N/A   Scattered Clouds
2:30 PM 66.2 °F 46.4 °F 49% 29.89 in 6.2 mi NW 11.2 mph - N/A   Partly Cloudy
3:00 PM 63 °F 43 °F 37% 29.86 in 9 mi WNW 6.7 mph - -   Mostly Cloudy
3:00 PM 66.2 °F 44.6 °F 46% 29.89 in 6.2 mi West 15.7 mph - N/A   Scattered Clouds
3:30 PM 68.0 °F 44.6 °F 43% 29.89 in 6.2 mi West 13.4 mph - N/A   Partly Cloudy
4:00 PM 69.8 °F 42.8 °F 38% 29.89 in 6.2 mi West 13.4 mph - N/A   Partly Cloudy
4:30 PM 68.0 °F 37.4 °F 33% 29.86 in 6.2 mi West 15.7 mph - N/A   Partly Cloudy
5:00 PM 68.0 °F 37.4 °F 33% 29.86 in 6.2 mi West 15.7 mph - N/A   Partly Cloudy
5:30 PM 68.0 °F 39.2 °F 35% 29.86 in 6.2 mi West 17.9 mph - N/A   Partly Cloudy
6:00 PM 65 °F 38 °F 26% 29.82 in 17 mi WNW 6.7 mph - -   Partly Cloudy
6:00 PM 68.0 °F 39.2 °F 35% 29.86 in 6.2 mi West 17.9 mph - N/A   Partly Cloudy
6:30 PM 68.0 °F 39.2 °F 35% 29.86 in 6.2 mi West 17.9 mph - N/A   Partly Cloudy
7:00 PM 66.2 °F 39.2 °F 37% 29.86 in - West 17.9 mph - N/A   Clear
7:30 PM 66.2 °F 39.2 °F 37% 29.86 in - West 17.9 mph - N/A   Clear
8:00 PM 64.4 °F 39.2 °F 40% 29.86 in - West 17.9 mph - N/A   Clear
8:30 PM 64.4 °F 41.0 °F 42% 29.89 in - West 13.4 mph - N/A   Clear
9:00 PM 60.8 °F 41.0 °F 48% 29.89 in - WNW 11.2 mph - N/A   Clear
9:30 PM 60.8 °F 41.0 °F 48% 29.92 in - WNW 8.9 mph - N/A   Clear
10:00 PM 57.2 °F 39.2 °F 51% 29.92 in - West 6.7 mph - N/A   Clear
10:30 PM 57.2 °F 41.0 °F 55% 29.92 in - West 6.7 mph - N/A   Clear
11:00 PM 55.4 °F 41.0 °F 58% 29.92 in - West 8.9 mph - N/A   Clear
11:30 PM 55.4 °F 39.2 °F 54% 29.92 in - West 8.9 mph - N/A   Clear